Location: Strawberry
(45.6646°N, 111.9596°W)
Time: 22:29:17
(UTC+00:00)

Courier 1B - Pass Details

Date: 09 October 2022
Orbit: 962 x 1209 km, 28.3° (Epoch: 29 November)

Event Time Altitude Azimuth Distance (km) Brightness Sun altitude
Rises 18:31:54 0° 215° (SW) 4,101 11.2 37.0°
Reaches altitude 10° 18:36:18 10° 194° (SSW) 3,132 11.2 37.1°
Maximum altitude 18:40:14 15° 163° (SSE) 2,771 11.4 37.3°
Drops below altitude 10° 18:44:08 10° 132° (SE) 3,092 10.9 37.4°
Sets 18:48:25 0° 110° (ESE) 4,016 11.0 37.5°
